Home   Weather   Curitiba   Past weeks

Flag for Brazil Past Weather in Curitiba, Paraná, Brazil — Yesterday and Last 2 Weeks

Now
63 °F

Scattered clouds.


Feels Like: 63 °F
Forecast: 53 / 68 °F
Wind: 2 mph from East

Location: Curitiba Aeroporto

Current Time: May 23, 2017 at 11:43:09 am

Latest Report: May 23, 2017 at 11:00 am


Visibility: N/A

Pressure: 30.27 "Hg (27.18 "Hg at 915m altitude)

Humidity: 73%

Dew Point: 54 °F

Location of CuritibaLocation

Past Weather in Curitiba — Graph

°F

Curitiba Temperature Yesterday

Maximum temperature yesterday: 63 °F (at 11:00 am)
Minimum temperature yesterday: 52 °F (at 9:00 pm)
Average temperature yesterday: 56 °F

High & Low Weather Summary for the Past Weeks

 TemperatureHumidityPressure
High77 °F (May 13, 1:00 pm)100% (May 8, 11:00 pm)30.27 "Hg (May 8, 11:00 pm)
Low48 °F (May 15, 5:00 am)40% (May 8, 4:00 pm)29.80 "Hg (May 14, 2:00 am)
Average60 °F88%30.08 "Hg
* Reported May 8 10:00 am — May 23 10:00 am, Curitiba. Weather by CustomWeather, © 2017

Note: Actual official high and low records may vary slightly from our data, if they occured in-between our weather recording intervals... More about our weather records

Advertising

Curitiba Weather History for the Previous 24 Hours

Scroll right to see more
 ConditionsComfort  
Time TempWeatherWind HumidityBarometerVisibility
10:00 am
Tue, May 23
59 °FSunny.3 mph77%30.27 "Hg10 mi
9:00 am57 °FScattered clouds.No wind82%30.27 "HgN/A
8:00 am52 °FPartly sunny.5 mph94%30.24 "HgN/A
7:00 am48 °FScattered clouds.3 mph100%30.21 "HgN/A
6:30 am48 °FPassing clouds.2 mph100%30.18 "HgN/A
6:00 am50 °FPartly cloudy.3 mph94%30.18 "HgN/A
5:00 am50 °FPassing clouds.5 mph94%30.18 "Hg5 mi
4:00 am50 °FPassing clouds.5 mph100%30.21 "Hg5 mi
3:00 am48 °FPassing clouds.5 mph100%30.21 "HgN/A
2:00 am50 °FPassing clouds.3 mph94%30.24 "HgN/A
1:00 am50 °FPassing clouds.3 mph94%30.24 "Hg6 mi
12:00 am50 °FPassing clouds.5 mph100%30.24 "Hg5 mi
11:00 pm
Mon, May 22
52 °FPassing clouds.6 mph94%30.24 "Hg5 mi
10:00 pm52 °FPassing clouds.3 mph94%30.21 "Hg5 mi
9:00 pm52 °FPassing clouds.6 mph100%30.21 "Hg5 mi
8:40 pm54 °FFog.5 mph94%30.21 "Hg2 mi
8:00 pm54 °FFog.6 mph100%30.21 "Hg1 mi
7:00 pm55 °FMostly cloudy.8 mph94%30.18 "Hg4 mi
6:30 pm55 °FMostly cloudy.8 mph100%30.18 "Hg5 mi
5:00 pm57 °FPartly sunny.7 mph94%30.15 "HgN/A
4:00 pm59 °FBroken clouds.6 mph88%30.18 "HgN/A
3:00 pm59 °FPartly sunny.8 mph88%30.15 "HgN/A
2:00 pm57 °FCloudy.12 mph94%30.15 "Hg6 mi
1:35 pm57 °FMostly cloudy.9 mph94%30.15 "HgN/A
1:00 pm63 °FMore clouds than sun.8 mph88%30.15 "HgN/A
12:00 pm63 °FPartly sunny.10 mph88%30.15 "HgN/A
11:00 am63 °FPartly sunny.9 mph88%30.18 "HgN/A
Weather by CustomWeather, © 2017

See weather overviewHow to use our weather pages